This demonstration page uses our WeatherBlox Daily Observations layout. Learn more.

Left ArrowRight Arrow

Hourly Observations for February 22, 2021

Temp ( °F °C ) Dew Point ( °F °C ) Humidity (%) Winds ( mph kmh ) Pressure ( in mb ) Visibility ( mi km ) Precip ( " mm )
12:54 am 00:54 Clear 29 -1.7 19 -7.2 66 66 Calm 30 1016 10 16.0934 0 0
1:54 am 01:54 Clear 28 -2.2 19 -7.2 69 69 Calm 30 1016 10 16.0934 0 0
2:54 am 02:54 Clear 23 -5 16 -8.9 74 74 SSW 3 6 29.98 1015 10 16.0934 0 0
3:54 am 03:54 Clear 24 -4.4 18 -7.8 77 77 S 5 7 29.97 1015 10 16.0934 0 0
4:54 am 04:54 Clear 25 -3.9 17 -8.3 72 72 VRB 3 6 29.96 1015 10 16.0934 0 0
5:54 am 05:54 Clear 26 -3.3 17 -8.3 69 69 VRB 3 6 29.95 1014 10 16.0934 0 0
6:54 am 06:54 Clear 28 -2.2 18 -7.8 66 66 S 6 9 29.93 1014 10 16.0934 0 0
7:54 am 07:54 Sunny 28 -2.2 19 -7.2 69 69 VRB 3 6 29.93 1014 10 16.0934 0 0
8:54 am 08:54 Sunny 35 1.7 22 -5.6 59 59 W 13 20 29.93 1014 10 16.0934 0 0
9:54 am 09:54 Sunny 38 3.3 25 -3.9 60 60 W 16 26 29.91 1013 10 16.0934 0 0
10:54 am 10:54 Sunny 41 5 26 -3.3 55 55 W 15 24 29.91 1013 10 16.0934 0 0
11:54 am 11:54 Sunny 42 5.6 27 -2.8 55 55 W 16 26 29.89 1012 10 16.0934 0 0
12:54 pm 12:54 Sunny 43 6.1 28 -2.2 56 56 W 16 26 29.87 1012 10 16.0934 0 0
1:54 pm 13:54 Sunny 44 6.7 28 -2.2 53 53 W 15 24 29.87 1012 10 16.0934 0 0
2:54 pm 14:54 Sunny 44 6.7 29 -1.7 55 55 W 14 22 29.88 1012 10 16.0934 0 0
3:54 pm 15:54 Sunny 43 6.1 29 -1.7 58 58 WSW 14 22 29.86 1011 10 16.0934 0 0
4:54 pm 16:54 Sunny 43 6.1 30 -1.1 60 60 WSW 15 24 29.86 1011 10 16.0934 0 0
5:54 pm 17:54 Sunny 42 5.6 30 -1.1 62 62 W 10 17 29.87 1012 10 16.0934 0 0
6:54 pm 18:54 Clear 40 4.4 30 -1.1 68 68 WSW 8 13 29.89 1012 10 16.0934 0 0
7:54 pm 19:54 Clear 40 4.4 30 -1.1 68 68 Calm 29.9 1013 10 16.0934 0 0
8:54 pm 20:54 Clear 41 5 30 -1.1 65 65 Calm 29.91 1013 10 16.0934 0 0
9:54 pm 21:54 Clear 40 4.4 30 -1.1 68 68 W 8 13 29.93 1013 10 16.0934 0 0
10:54 pm 22:54 Clear 41 5 30 -1.1 65 65 SW 3 6 29.94 1014 10 16.0934 0 0
11:54 pm 23:54 Clear 37 2.8 28 -2.2 70 70 Calm 29.95 1014 10 16.0934 0 0

Powered by AerisWeather